{"data":{"norad_id":87569,"intl_designator":"","name":"UNKNOWN","alt_names":[],"object_type":"UNKNOWN","status":"UNKNOWN","operator":null,"country":null,"launch_date":null,"launch_site_code":null,"launch_vehicle":null,"mission":null,"orbit_class":"UNKNOWN","rcs_meters":null,"size_class":null,"mass_kg":null,"dimensions":null,"purposes":[],"wikipedia_slug":null,"has_3d_model":false,"image_url":null,"decayed_at":null,"tle_current":{"epoch":"2026-05-23T07:58:37.726176Z","epoch_age_seconds":213023,"freshness":"STALE","line1":"1 87569U          26143.33238109 -.00000041  00000+0  40855-4 0  9991","line2":"2 87569 101.9963 331.9455 0055243 296.5310 244.4918 12.68546977578952","mean_motion":12.68546977,"eccentricity":0.0055243,"inclination_deg":101.9963,"raan_deg":331.9455,"arg_perigee_deg":296.531,"mean_anomaly_deg":244.4918,"bstar":4.0855e-5,"rev_number":57895,"period_min":113.51570151588,"perigee_km":1344.9628032509,"apogee_km":1430.7662477053,"semimajor_km":7766.0015254781,"source":"CELESTRAK","updated_at":"2026-05-25T13:38:11.673713Z"}}}